APRIZESAT 10 (40019 NORAD) Tracking and Keplerian Element Data

This shows tracking and keplerian element data for the satellite.

Feedback or suggestion? Click here.




ElementValue
Catalog40019
NameAPRIZESAT 10
Epoch Orbit56921
Epoch Day34.94850632
Epoch Year2025
RAAN170.3582
Inclination97.8955
Eccentricity0.0081404
Argument of Perigee65.3658
Mean Anonmoly295.6001
Mean Motion14.69859003
Decay Rate1.398E-05
L11 40019U 14033K 25034.94850632 .00001398 00000+0 23040-3 0 9998
L22 40019 97.8955 170.3582 0081404 65.3658 295.6001 14.69859003569216



Live tracking and technical data element details for APRIZESAT 10 (NORAD 40019). APRIZESAT 10 can be tracked NOW for your location showing map with azimuth and elevation plus other details from your city location.







IsCatalogInMostPopularTable: catalog: 40019, numindb: 607
Update: records affected: 1



GetName: 40019 APRIZESAT 10

Hit Count: updated at: Thu, 15 May 2025 11:00:49 GMT